Flag for Germany Weather for the Past 2 Weeks in Neustadt an der Weinstraße, Rhineland-Palatinate, Germany

Now
46 °F

Overcast.


Feels Like: 42 °F
Forecast: 32 / 40 °F
Wind: 9 mph from Southwest

Location: Mannheim City

Current Time: Feb 14, 2016 at 2:40:13 PM

Latest Report: Feb 14, 2016 at 1:50 PM


Visibility: N/A

Pressure: 29.21 "Hg

Humidity: 66%

Dew point: 36 °F

Location of Neustadt an der WeinstraßeLocation

Historic Weather in Neustadt an der Weinstraße — Graph

°F

Neustadt an der Weinstraße Temperature Yesterday

Maximum temperature yesterday: 45 °F (at 4:50 PM)
Minimum temperature yesterday: 36 °F (at 7:20 AM)
Average temperature yesterday: 41 °F

High & Low Weather Summary for the Past Weeks

 TemperatureHumidityPressure
High57 °F (Feb 1, 2:50 AM)100% (Jan 31, 8:50 AM)30.36 "Hg (Jan 31, 8:50 AM)
Low34 °F (Feb 12, 5:50 AM)51% (Feb 6, 3:50 PM)29.09 "Hg (Feb 9, 4:20 PM)
Average45 °F79%29.80 "Hg
* Reported Jan 30 1:20 PM — Feb 14 1:20 PM, Neustadt an der Weinstraße, Weather by CustomWeather, © 2016

Note: Actual official high and low records may vary slightly from our data, if they occured in-between our weather recording intervals... More about our weather records

Advertising

Neustadt an der Weinstraße Weather History for the Previous 24 Hours

 ConditionsComfort  
Time TempWeatherWind HumidityBarometerVisibility
1:20 PM
Sun, Feb 14
45 °FOvercast.9 mph71%29.21 "HgN/A
12:50 PM46 °FOvercast.10 mph71%29.21 "HgN/A
12:20 PM46 °FMostly cloudy.8 mph66%29.21 "HgN/A
11:50 AM46 °FPartly sunny.8 mph71%29.18 "HgN/A
11:20 AM46 °FPartly sunny.8 mph71%29.18 "HgN/A
10:50 AM46 °FPartly sunny.8 mph71%29.18 "HgN/A
10:20 AM46 °FPartly sunny.5 mph71%29.15 "HgN/A
9:50 AM46 °FScattered clouds.6 mph71%29.15 "HgN/A
9:20 AM46 °FPassing clouds.7 mph71%29.15 "HgN/A
8:20 AM43 °FPassing clouds.7 mph87%29.15 "HgN/A
7:50 AM45 °FBroken clouds.7 mph81%29.15 "HgN/A
7:50 PM
Sat, Feb 13
45 °FLight rain. Mostly cloudy.7 mph87%29.09 "HgN/A
7:20 PM45 °FLight rain. Overcast.6 mph87%29.09 "HgN/A
6:50 PM45 °FLight rain. Mostly cloudy.10 mph87%29.09 "HgN/A
6:20 PM45 °FLight rain. Overcast.12 mph81%29.09 "HgN/A
5:50 PM45 °FLight rain. Mostly cloudy.7 mph81%29.09 "HgN/A
5:20 PM45 °FLight rain. Partly sunny.7 mph87%29.12 "HgN/A
4:50 PM45 °FLight rain. Mostly cloudy.8 mph87%29.12 "HgN/A
4:20 PM43 °FLight rain. Partly sunny.7 mph93%29.15 "HgN/A
3:50 PM43 °FLight rain. Partly sunny.7 mph87%29.15 "HgN/A
3:20 PM43 °FLight rain. Overcast.6 mph87%29.18 "HgN/A
2:50 PM43 °FOvercast.6 mph87%29.21 "HgN/A
2:20 PM43 °FOvercast.8 mph87%29.21 "HgN/A
Weather by CustomWeather, © 2016

See weather overviewHow to use our weather pages